[[{"header":{"parameterUnit":"m.s-1","parameterCategory":1,"la1":30.2991,"la2":30.254,"lo1":-89.0895,"lo2":-89.0444,"dy":0.0017,"dx":0.0017,"nx":28,"ny":28,"refTime":"2023-07-28T03:00:00:Z","depth":0,"parameterNumber":2,"parameterNumberName":"U-component_of_WINDS"},"data":[0,0,0,0,0,0,0,0,0,0,0,0,0,0,0,0,0,0,0,0,0,0,0,0,0,0,0,0,0,0,0,0,0,0,0,0,0,0,0,0,0,0,0,0,0,0,0,0,0,0,0,0,0,0,0,0,0,0,2.0601,2.0602,0,2.0652,2.0653,2.0653,2.0667,2.0667,2.0666,2.0666,2.0718,2.072,2.0722,0,0,0,0,0,0,0,0,0,0,0,0,0,2.0516,2.0517,2.0601,2.0602,2.0602,2.0652,2.0653,2.0654,2.0667,2.0667,2.0666,2.0666,2.0718,2.072,2.0722,0,0,0,0,0,0,0,0,0,0,0,0,0,2.0559,2.0518,2.0601,2.0615,2.0617,2.0652,2.0653,2.0654,2.0667,2.0667,2.0666,2.0666,2.0717,2.072,2.0722,2.0747,0,0,2.073,2.0731,0,0,0,0,0,0,0,0,2.0556,2.0562,2.0612,2.0614,2.0616,2.0653,2.0642,2.0685,2.0667,2.0648,2.0666,2.0666,2.0697,2.0701,2.0712,2.0749,2.0751,2.073,2.0732,2.0733,2.0733,0,0,0,0,0,0,0,2.0553,2.056,2.0621,2.0613,2.0615,2.0619,2.0625,2.065,2.0674,2.065,2.0651,2.0657,2.0698,2.0709,2.0713,2.0752,2.073,2.0732,2.0734,2.0735,2.0814,2.0814,0,0,0,0,0,0,2.0548,2.0557,2.062,2.0623,2.0584,2.0621,2.0627,2.0642,2.0674,2.0679,2.0657,2.0657,2.0705,2.071,2.0715,2.0747,2.0733,2.0735,2.0736,2.0813,2.0814,2.0815,0,0,0,0,0,0,2.0546,2.0553,2.0618,2.059,2.0599,2.0623,2.0639,2.0643,2.0654,2.068,2.0684,2.0664,2.0705,2.0711,2.0739,2.0749,2.0736,2.0738,2.0813,2.0814,2.0814,2.081,0,0,0,0,0,0,2.0543,2.0552,2.0562,2.059,2.06,2.064,2.0639,2.0644,2.0658,2.0659,2.0688,2.0692,2.0705,2.0735,2.0742,2.0752,2.074,2.0812,2.0813,2.0814,2.0809,2.081,2.0811,0,0,0,0,0,2.054,2.0558,2.0562,2.0569,2.0612,2.0641,2.0647,2.0662,2.0659,2.0669,2.0686,2.0691,2.0747,2.0738,2.0745,2.0756,2.0811,2.0813,2.0814,2.0808,2.081,2.0811,0,0,0,0,0,0,2.0529,2.0562,2.0567,2.0594,2.0615,2.0643,2.0656,2.0663,2.0684,2.0684,2.0702,2.0708,2.0735,2.0748,2.0738,2.0783,2.0779,2.0782,2.0772,2.0774,2.0775,2.0771,2.0742,0,0,0,0,0,2.053,2.055,2.0578,2.06,2.061,2.0631,2.0644,2.0654,2.0676,2.0685,2.0704,2.0725,2.0747,2.0761,2.0783,2.0811,2.0818,2.0823,2.0824,2.0825,2.0827,2.0843,2.0846,2.0819,2.0819,2.0819,0,0,2.0532,2.0552,2.0564,2.0598,2.0615,2.0636,2.0638,2.066,2.0676,2.0688,2.0715,2.073,2.0755,2.0783,2.0797,2.0796,2.0836,2.0826,2.0827,2.0829,2.0845,2.0848,2.085,2.082,2.082,2.082,0,0,2.0546,2.0563,2.0583,2.0601,2.0627,2.0641,2.0646,2.0674,2.0684,2.0712,2.0722,2.0742,2.078,2.0797,2.0811,2.0834,2.084,2.0841,2.0846,2.0862,2.0864,2.0866,2.0875,2.0878,2.0843,2.0843,2.0843,0,2.0544,2.0576,2.0593,2.0615,2.063,2.0642,2.0664,2.068,2.0712,2.0722,2.072,2.0769,2.0787,2.082,2.0825,2.0836,2.0843,2.0837,2.0863,2.0865,2.0867,2.0875,2.0878,2.0843,2.0843,2.0843,2.0843,0,2.0574,2.0596,2.061,2.0641,2.0657,2.0679,2.0699,2.0714,2.0723,2.0738,2.0767,2.0789,2.0816,2.0824,2.0833,2.0859,2.0858,2.0859,2.0856,2.0869,2.0877,2.0881,2.0843,2.0843,2.0843,2.0843,0,0,2.0581,2.0622,2.0627,2.0641,2.0672,2.069,2.0712,2.0739,2.0752,2.0774,2.0794,2.0826,2.0829,2.0844,2.0856,2.087,2.0887,2.087,2.0871,2.0872,2.0918,2.0916,2.0919,2.0892,2.0892,2.0893,2.0916,0,2.0599,2.0639,2.0655,2.0688,2.071,2.0723,2.0743,2.0764,2.0779,2.0799,2.0816,2.0839,2.084,2.0849,2.0864,2.0882,2.0896,2.088,2.091,2.0911,2.0903,2.0923,2.0921,2.0942,2.0919,2.0919,2.092,0,2.0624,2.0647,2.0683,2.0712,2.0721,2.0739,2.0765,2.0785,2.081,2.082,2.0838,2.0849,2.0873,2.0869,2.0904,2.0893,2.0906,2.0917,2.0918,2.0921,2.0916,2.0927,2.0949,2.0952,2.0925,2.0924,2.0924,0,2.0626,2.0666,2.0693,2.0705,2.0739,2.0752,2.0767,2.0791,2.0807,2.083,2.084,2.0866,2.088,2.0901,2.0918,2.0914,2.0952,2.0949,2.0961,2.096,2.0967,2.0967,2.0992,2.0976,2.0976,2.0976,2.0976,0,2.0644,2.0665,2.0694,2.071,2.0735,2.0754,2.0777,2.0793,2.0815,2.0835,2.0848,2.0867,2.0889,2.0911,2.0925,2.0952,2.0958,2.0967,2.097,2.0966,2.0964,2.0974,2.0973,2.0977,2.0977,2.0977,2.0977,0,2.065,2.067,2.07,2.0731,2.0739,2.0756,2.0782,2.0799,2.0815,2.084,2.0847,2.0872,2.0899,2.0918,2.0952,2.0962,2.0991,2.0994,2.0982,2.0984,2.0995,2.0993,2.1026,2.1032,2.1013,2.1013,2.1013,0,2.066,2.0676,2.071,2.0724,2.0739,2.0762,2.0778,2.0798,2.0815,2.0845,2.0858,2.0886,2.0908,2.095,2.0971,2.0998,2.1002,2.1012,2.1006,2.1001,2.1002,2.1001,2.1003,2.1012,2.1012,2.1012,2.1012,0,2.0675,2.0685,2.0708,2.0735,2.0754,2.0776,2.0798,2.0809,2.0833,2.0851,2.0879,2.0896,2.0932,2.0959,2.0988,2.1003,2.1012,2.1014,2.1019,2.1014,2.1006,2.101,2.0984,2.1013,2.1013,2.1013,2.1013,2.1013,2.0684,2.0699,2.0726,2.0751,2.077,2.0791,2.0809,2.0827,2.085,2.0881,2.0891,2.0919,2.0945,2.0985,2.1001,2.1024,2.1024,2.103,2.1031,2.1032,2.1032,2.1003,2.1029,2.1029,2.1029,2.1029,2.1029,0,2.07,2.0718,2.0741,2.0772,2.0793,2.08,2.0825,2.0842,2.0867,2.089,2.0913,2.0944,2.0971,2.0995,2.1023,2.1037,2.1042,2.1043,2.1042,2.1046,2.103,2.1024,2.1039,2.1039,2.1039,2.1039,2.1039,2.1039,2.0711,2.0738,2.0751,2.0789,2.0806,2.0834,2.0848,2.0868,2.0887,2.0922,2.0944,2.096,2.0984,2.1014,2.1039,2.1046,2.1055,2.1056,2.1064,2.1048,2.1047,2.1046,2.104,2.1058,2.1058,2.1078,2.1078,2.1078]},{"header":{"parameterUnit":"m.s-1","parameterCategory":1,"la1":30.2991,"la2":30.254,"lo1":-89.0895,"lo2":-89.0444,"dy":0.0017,"dx":0.0017,"nx":28,"ny":28,"refTime":"2023-07-28T03:00:00:Z","depth":0,"parameterNumber":3,"parameterNumberName":"V-component_of_WINDS"},"data":[0,0,0,0,0,0,0,0,0,0,0,0,0,0,0,0,0,0,0,0,0,0,0,0,0,0,0,0,0,0,0,0,0,0,0,0,0,0,0,0,0,0,0,0,0,0,0,0,0,0,0,0,0,0,0,0,0,0,-0.48,-0.48,0,-0.4846,-0.4847,-0.4847,-0.4855,-0.4855,-0.4855,-0.4854,-0.4903,-0.4905,-0.4906,0,0,0,0,0,0,0,0,0,0,0,0,0,-0.4722,-0.4723,-0.48,-0.48,-0.4801,-0.4846,-0.4847,-0.4847,-0.4855,-0.4855,-0.4855,-0.4854,-0.4902,-0.4904,-0.4906,0,0,0,0,0,0,0,0,0,0,0,0,0,-0.476,-0.4723,-0.48,-0.481,-0.4812,-0.4846,-0.4847,-0.4847,-0.4856,-0.4855,-0.4854,-0.4854,-0.4902,-0.4904,-0.4907,-0.4934,0,0,-0.4914,-0.4915,0,0,0,0,0,0,0,0,-0.4758,-0.4763,-0.4808,-0.481,-0.4811,-0.4844,-0.4837,-0.4876,-0.4856,-0.4839,-0.4854,-0.4854,-0.4884,-0.4888,-0.4898,-0.4936,-0.4938,-0.4915,-0.4916,-0.4917,-0.4918,0,0,0,0,0,0,0,-0.4756,-0.4761,-0.4818,-0.4809,-0.4811,-0.4814,-0.4819,-0.4844,-0.4864,-0.484,-0.4841,-0.4846,-0.4885,-0.4896,-0.4899,-0.4939,-0.4914,-0.4917,-0.4918,-0.4919,-0.5004,-0.5005,0,0,0,0,0,0,-0.4751,-0.4759,-0.4817,-0.482,-0.4783,-0.4816,-0.4821,-0.4834,-0.4864,-0.4868,-0.4847,-0.4847,-0.4892,-0.4896,-0.4901,-0.4936,-0.4917,-0.4919,-0.4921,-0.5003,-0.5004,-0.5005,0,0,0,0,0,0,-0.4749,-0.4756,-0.4815,-0.479,-0.4797,-0.4818,-0.4832,-0.4836,-0.4846,-0.4869,-0.4873,-0.4854,-0.4891,-0.4897,-0.4926,-0.4938,-0.4921,-0.4923,-0.5002,-0.5003,-0.5004,-0.5006,0,0,0,0,0,0,-0.4747,-0.4755,-0.4765,-0.479,-0.4799,-0.4838,-0.4833,-0.4837,-0.485,-0.4851,-0.4877,-0.488,-0.4891,-0.4922,-0.4928,-0.4941,-0.4925,-0.5001,-0.5003,-0.5004,-0.5005,-0.5007,-0.5008,0,0,0,0,0,-0.4744,-0.4763,-0.4765,-0.4772,-0.4811,-0.4839,-0.4844,-0.4856,-0.4851,-0.4862,-0.4877,-0.4879,-0.4935,-0.4925,-0.4932,-0.4946,-0.5001,-0.5002,-0.5004,-0.5004,-0.5006,-0.5008,0,0,0,0,0,0,-0.4739,-0.4766,-0.4769,-0.4796,-0.4815,-0.484,-0.4853,-0.4858,-0.4878,-0.4878,-0.4892,-0.4898,-0.4926,-0.4939,-0.4926,-0.4975,-0.4968,-0.4971,-0.4965,-0.4968,-0.497,-0.4967,-0.4927,0,0,0,0,0,-0.4741,-0.476,-0.4783,-0.4806,-0.4815,-0.4833,-0.4845,-0.4853,-0.4873,-0.4881,-0.4898,-0.4918,-0.494,-0.4955,-0.4976,-0.5006,-0.5013,-0.502,-0.5021,-0.5023,-0.5026,-0.5045,-0.5049,-0.501,-0.501,-0.501,0,0,-0.4745,-0.4763,-0.4774,-0.4805,-0.4821,-0.4842,-0.4839,-0.4861,-0.4877,-0.4885,-0.4913,-0.4926,-0.495,-0.498,-0.4994,-0.4991,-0.5038,-0.5025,-0.5026,-0.5028,-0.5047,-0.5051,-0.5054,-0.5012,-0.5011,-0.5011,0,0,-0.4764,-0.4779,-0.48,-0.4816,-0.4839,-0.4851,-0.4856,-0.4881,-0.489,-0.4918,-0.4925,-0.4945,-0.4982,-0.5,-0.5013,-0.5041,-0.5045,-0.5048,-0.5058,-0.5077,-0.508,-0.5082,-0.5094,-0.5098,-0.5051,-0.5051,-0.5051,0,-0.4767,-0.4798,-0.481,-0.4832,-0.4847,-0.4854,-0.4877,-0.4892,-0.4921,-0.4932,-0.4928,-0.4977,-0.4993,-0.5028,-0.5035,-0.5045,-0.5053,-0.5045,-0.5078,-0.5081,-0.5084,-0.5095,-0.5099,-0.5051,-0.5051,-0.5051,-0.5051,0,-0.4801,-0.4823,-0.4837,-0.4866,-0.4882,-0.4904,-0.4921,-0.4936,-0.4942,-0.4955,-0.4986,-0.5006,-0.5032,-0.5041,-0.5048,-0.5078,-0.5076,-0.5075,-0.5069,-0.5088,-0.5099,-0.5103,-0.5051,-0.5051,-0.5051,-0.5051,0,0,-0.4818,-0.4854,-0.4859,-0.4873,-0.49,-0.4918,-0.4941,-0.4968,-0.4981,-0.5002,-0.5023,-0.5055,-0.5055,-0.5071,-0.508,-0.5096,-0.5119,-0.5093,-0.5094,-0.5099,-0.5157,-0.5158,-0.5162,-0.5122,-0.5123,-0.5124,-0.5155,0,-0.4841,-0.4882,-0.4895,-0.493,-0.4952,-0.496,-0.4981,-0.5001,-0.5014,-0.5035,-0.5049,-0.5073,-0.507,-0.508,-0.5096,-0.5113,-0.5131,-0.5111,-0.5143,-0.5144,-0.5138,-0.5168,-0.5169,-0.5198,-0.5159,-0.516,-0.5161,0,-0.4873,-0.4895,-0.4933,-0.4959,-0.4969,-0.4987,-0.5013,-0.5033,-0.5056,-0.5065,-0.5083,-0.5091,-0.5118,-0.511,-0.5147,-0.5133,-0.5148,-0.5158,-0.5159,-0.5164,-0.5154,-0.5174,-0.5207,-0.5212,-0.5167,-0.5167,-0.5166,0,-0.4884,-0.4922,-0.495,-0.4962,-0.4993,-0.5006,-0.502,-0.5043,-0.5058,-0.5082,-0.5092,-0.5118,-0.5133,-0.5154,-0.5169,-0.5161,-0.5206,-0.5199,-0.5216,-0.5215,-0.5225,-0.5224,-0.5262,-0.5232,-0.5232,-0.5232,-0.5232,0,-0.4909,-0.4932,-0.4955,-0.4973,-0.4999,-0.5014,-0.5041,-0.5055,-0.5076,-0.5097,-0.5106,-0.5126,-0.5145,-0.5168,-0.518,-0.5211,-0.5217,-0.5226,-0.5229,-0.5226,-0.5225,-0.5236,-0.5235,-0.5233,-0.5233,-0.5233,-0.5233,0,-0.4925,-0.4941,-0.4973,-0.5,-0.5008,-0.5026,-0.5051,-0.5069,-0.5083,-0.511,-0.5117,-0.5139,-0.5167,-0.5184,-0.5219,-0.5228,-0.5262,-0.5264,-0.5254,-0.5256,-0.5272,-0.5271,-0.5319,-0.5327,-0.5291,-0.5291,-0.5291,0,-0.494,-0.4959,-0.4988,-0.5003,-0.5017,-0.5041,-0.5057,-0.5073,-0.509,-0.512,-0.5135,-0.5163,-0.5187,-0.5231,-0.5251,-0.5279,-0.5282,-0.5297,-0.5286,-0.5283,-0.5284,-0.5284,-0.5286,-0.5299,-0.5299,-0.5299,-0.53,0,-0.4967,-0.4975,-0.4998,-0.5024,-0.5044,-0.5065,-0.5087,-0.5099,-0.5119,-0.5137,-0.5166,-0.5184,-0.5221,-0.525,-0.528,-0.5295,-0.5302,-0.5303,-0.5309,-0.5306,-0.53,-0.5305,-0.5261,-0.5302,-0.5302,-0.5301,-0.5301,-0.5301,-0.4984,-0.5002,-0.5026,-0.5052,-0.507,-0.5091,-0.5109,-0.5126,-0.515,-0.5181,-0.5189,-0.522,-0.5245,-0.5286,-0.5302,-0.5327,-0.5325,-0.5333,-0.5335,-0.5337,-0.5338,-0.5295,-0.5333,-0.5333,-0.5333,-0.5333,-0.5332,0,-0.5013,-0.5029,-0.5053,-0.5083,-0.5104,-0.5108,-0.5133,-0.515,-0.5177,-0.52,-0.5223,-0.5257,-0.5286,-0.5309,-0.5339,-0.5354,-0.5358,-0.5362,-0.5361,-0.5365,-0.5338,-0.533,-0.5358,-0.5358,-0.5358,-0.5358,-0.5358,-0.5358,-0.503,-0.506,-0.5071,-0.5111,-0.5128,-0.5157,-0.5171,-0.5191,-0.521,-0.5247,-0.5271,-0.5286,-0.5309,-0.5341,-0.5368,-0.5375,-0.5386,-0.5389,-0.5396,-0.537,-0.5367,-0.5364,-0.5358,-0.5391,-0.5391,-0.5422,-0.5422,-0.5423]}]]